logo
Rechercher aéroport 
image banner adimage banner adimage banner ad
image banner ad

3CN2 - Santa Barbara Cottage Hospital

Situé à Santa Barbara, United States

ICAO - 3CN2, IATA -

Données fournies par Airmate  

Information générale

Coordonnées: N34°25'47" W119°43'27"
Élévation : 201 feet MSL.
 
Voir autres Aéroports à California

Données opérationnelles

Special qualification required
Heure actuelle UTC:
Heure actuelle locale:
Météo à : KSBA - Santa Barbara Muni ( 11 km )
METAR: KSBA 281153Z 08004KT 8SM CLR 18/16 A2988 RMK AO2 SLP119 T01830161 10194 20167 51008
TAF: KSBA 280534Z 2806/2906 VRB03KT P6SM SKC FM281800 22006KT P6SM SKC FM290100 12006KT P6SM SKC
Voir NOTAMs / SUP AIP / TFR affectant cet aéroport [VIEW]
Fréquences de communication: [VIEW]

Pistes:

Coordonnées de l'aéroport

Adresse: Santa Barbara United States

Vue satellite de 3CN2